FW9226 Weather Reports


Display with metric or nautical units.
time (UTC)temp
F
wind
direction
speed
MPH
gust
MPH
rain 1hr
in
rain 24hr
in
rain mn
in
humidity
%
barometer
mb
20260904193002 60 207 2.0 6.0 0.00 0.00 0.00 73 1016.5
20260904192503 60 176 2.0 7.0 0.00 0.00 0.00 74 1016.5
20260904192002 60 172 1.0 7.0 0.00 0.00 0.00 74 1016.6
20260904191503 60 127 1.0 3.0 0.00 0.00 0.00 76 1016.6
20260904191004 59 105 1.0 4.0 0.00 0.00 0.00 76 1016.6
20260904190008 58 234 1.0 4.0 0.00 0.00 0.00 79 1016.6
20260904185504 58 181 1.0 4.0 0.00 0.00 0.00 78 1016.6
20260904185004 58 79 2.0 6.0 0.00 0.00 0.00 79 1016.6
20260904184504 58 203 1.0 6.0 0.00 0.00 0.00 79 1016.6
20260904184004 58 210 1.0 5.0 0.00 0.00 0.00 80 1016.6
20260904183500 57 248 1.0 4.0 0.00 0.00 0.00 80 1016.6
20260904182500 58 143 1.0 5.0 0.00 0.00 0.00 80 1016.6
20260904182008 58 249 1.0 6.0 0.00 0.00 0.00 80 1016.6
20260904181503 57 49 1.0 6.0 0.00 0.00 0.00 81 1016.6
20260904181004 57 86 1.0 3.0 0.00 0.00 0.00 81 1016.5
20260904180504 57 110 1.0 3.0 0.00 0.00 0.00 82 1016.5
20260904180009 57 228 1.0 3.0 0.00 0.00 0.00 82 1016.5
20260904175503 56 79 2.0 6.0 0.00 0.00 0.00 83 1016.5
20260904175004 56 89 1.0 5.0 0.00 0.00 0.00 82 1016.5
20260904174004 56 234 1.0 4.0 0.00 0.00 0.00 84 1016.4
20260904173508 56 66 2.0 6.0 0.00 0.00 0.00 84 1016.3
20260904173006 56 142 1.0 6.0 0.00 0.00 0.00 83 1016.3
20260904172505 56 152 1.0 5.0 0.00 0.00 0.00 83 1016.3
20260904172003 56 254 2.0 6.0 0.00 0.00 0.00 83 1016.2
20260904171504 56 97 1.0 6.0 0.00 0.00 0.00 83 1016.1
20260904171003 56 146 0.0 4.0 0.00 0.00 0.00 84 1016.1
20260904170503 56 205 1.0 3.0 0.00 0.00 0.00 84 1016.1
20260904170003 56 106 1.0 3.0 0.00 0.00 0.00 84 1015.9
20260904165503 55 75 1.0 4.0 0.00 0.00 0.00 85 1015.9
20260904164503 55 103 1.0 4.0 0.00 0.00 0.00 86 1015.9
20260904164004 55 212 1.0 4.0 0.00 0.00 0.00 85 1015.7
20260904163504 55 147 1.0 3.0 0.00 0.00 0.00 86 1015.8
20260904163004 55 139 1.0 4.0 0.00 0.00 0.00 86 1015.7
20260904162503 55 198 2.0 7.0 0.00 0.00 0.00 86 1015.5
20260904162004 54 221 1.0 7.0 0.00 0.00 0.00 86 1015.5
20260904161004 55 137 1.0 3.0 0.00 0.00 0.00 86 1015.5
20260904155502 54 174 1.0 4.0 0.00 0.00 0.00 87 1015.5
20260904155007 54 160 1.0 4.0 0.00 0.00 0.00 87 1015.4
20260904154009 54 229 1.0 4.0 0.00 0.00 0.00 87 1015.4
20260904153504 54 234 0.0 3.0 0.00 0.00 0.00 87 1015.4
20260904153007 54 212 1.0 3.0 0.00 0.00 0.00 87 1015.4
20260904152506 54 144 0.0 2.0 0.00 0.00 0.00 87 1015.4
20260904152006 54 154 0.0 2.0 0.00 0.00 0.00 87 1015.4
20260904151505 54 180 0.0 2.0 0.00 0.00 0.00 87 1015.4
20260904151006 54 132 1.0 2.0 0.00 0.00 0.00 87 1015.4
20260904150505 54 127 0.0 2.0 0.00 0.00 0.00 87 1015.3
20260904150009 54 200 0.0 2.0 0.00 0.00 0.00 87 1015.2
20260904145505 54 148 0.0 1.0 0.00 0.00 0.00 87 1015.2
20260904145006 54 148 0.0 1.0 0.00 0.00 0.00 87 1015.2
20260904144503 54 148 0.0 2.0 0.00 0.00 0.00 87 1015.1
20260904144004 54 212 0.0 1.0 0.00 0.00 0.00 87 1015.0
20260904143503 54 132 0.0 1.0 0.00 0.00 0.00 87 1015.1
20260904143004 54 196 0.0 2.0 0.00 0.00 0.00 87 1015.0
20260904142503 54 196 0.0 2.0 0.00 0.00 0.00 87 1014.9
20260904141005 54 137 1.0 2.0 0.00 0.00 0.00 85 1014.7
20260904140504 54 136 0.0 2.0 0.00 0.00 0.00 85 1014.6
20260904140008 54 143 0.0 1.0 0.00 0.00 0.00 84 1014.7
20260904135504 54 136 0.0 1.0 0.00 0.00 0.00 84 1014.5
20260904135005 54 197 0.0 2.0 0.00 0.00 0.00 83 1014.6
20260904134505 54 203 0.0 2.0 0.00 0.00 0.00 83 1014.5
20260904134005 54 149 0.0 2.0 0.00 0.00 0.00 83 1014.5
20260904133503 55 142 0.0 2.0 0.00 0.00 0.00 82 1014.3
20260904133003 55 139 0.0 1.0 0.00 0.00 0.00 82 1014.3
20260904132006 55 145 0.0 1.0 0.00 0.00 0.00 82 1014.3
20260904131504 55 133 0.0 1.0 0.00 0.00 0.00 82 1014.3
20260904131007 55 138 0.0 1.0 0.00 0.00 0.00 82 1014.3
20260904130502 55 142 0.0 2.0 0.00 0.00 0.00 81 1014.3
20260904130008 55 146 1.0 3.0 0.00 0.00 0.00 81 1014.2
20260904125505 55 130 1.0 4.0 0.00 0.00 0.00 81 1014.2
20260904125004 55 142 0.0 3.0 0.00 0.00 0.00 81 1014.1
20260904124503 55 144 0.0 3.0 0.00 0.00 0.00 81 1014.2
20260904124005 55 236 0.0 2.0 0.00 0.00 0.00 80 1014.2
20260904123505 55 140 0.0 1.0 0.00 0.00 0.00 80 1014.1
20260904123005 55 134 0.0 2.0 0.00 0.00 0.00 80 1014.2
20260904122504 55 133 0.0 2.0 0.00 0.00 0.00 79 1014.1
20260904122004 55 127 0.0 1.0 0.00 0.00 0.00 79 1014.1
20260904121005 55 196 0.0 1.0 0.00 0.00 0.00 79 1014.2
20260904120504 55 196 0.0 1.0 0.00 0.00 0.00 79 1014.2
20260904120006 55 240 0.0 1.0 0.00 0.00 0.00 79 1014.2
20260904115503 55 145 0.0 1.0 0.00 0.00 0.00 79 1014.2
20260904115006 55 142 0.0 1.0 0.00 0.00 0.00 79 1014.2
20260904114503 55 141 0.0 1.0 0.00 0.00 0.00 79 1014.2
20260904114007 55 142 0.0 1.0 0.00 0.00 0.00 79 1014.2
20260904113004 55 200 0.0 0.0 0.00 0.00 0.00 79 1014.2
20260904112504 55 200 0.0 0.0 0.00 0.00 0.00 80 1014.1
20260904112004 55 200 0.0 0.0 0.00 0.00 0.00 80 1014.2
20260904111504 55 197 0.0 0.0 0.00 0.00 0.00 80 1014.2
20260904111003 55 197 0.0 0.0 0.00 0.00 0.00 80 1014.2
20260904110505 55 197 0.0 1.0 0.00 0.00 0.00 80 1014.2
20260904110008 55 297 0.0 1.0 0.00 0.00 0.00 80 1014.2
20260904105502 55 262 0.0 0.0 0.00 0.00 0.00 80 1014.2
20260904105005 55 262 0.0 0.0 0.00 0.00 0.00 80 1014.2
20260904104502 55 283 0.0 1.0 0.00 0.00 0.00 80 1014.2
20260904104005 55 283 0.0 1.0 0.00 0.00 0.00 81 1014.1
20260904103504 55 283 0.0 1.0 0.00 0.00 0.00 80 1014.2
20260904103004 55 284 0.0 0.0 0.00 0.00 0.00 80 1014.2
20260904102505 55 284 0.0 0.0 0.00 0.00 0.00 80 1014.2
20260904102004 55 284 0.0 0.0 0.00 0.00 0.00 80 1014.2
20260904101505 55 284 0.0 1.0 0.00 0.00 0.00 80 1014.1
20260904101005 55 284 0.0 1.0 0.00 0.00 0.00 80 1014.1
20260904100006 55 284 0.0 0.0 0.00 0.00 0.00 79 1014.1
20260904095504 55 284 0.0 0.0 0.00 0.00 0.00 79 1014.0
20260904095005 55 284 0.0 0.0 0.00 0.00 0.00 79 1013.9
20260904094502 55 284 0.0 0.0 0.00 0.00 0.00 79 1013.9
20260904094004 55 284 0.0 1.0 0.00 0.00 0.00 79 1013.8
20260904093503 55 283 0.0 1.0 0.00 0.00 0.00 79 1013.9
20260904093005 55 283 0.0 1.0 0.00 0.00 0.00 79 1014.0
20260904092505 55 284 0.0 0.0 0.00 0.00 0.00 79 1013.9
20260904091005 55 284 0.0 0.0 0.00 0.00 0.00 79 1013.9
20260904090504 55 284 0.0 0.0 0.00 0.00 0.00 79 1014.0
20260904090007 55 284 0.0 0.0 0.00 0.00 0.00 79 1014.0
20260904085502 55 284 0.0 1.0 0.00 0.00 0.00 79 1014.0
20260904085004 55 284 0.0 1.0 0.00 0.00 0.00 79 1014.0
20260904084503 55 284 0.0 0.0 0.00 0.00 0.00 79 1014.0
20260904084006 55 283 0.0 1.0 0.00 0.00 0.00 79 1014.1
20260904083503 55 284 0.0 2.0 0.00 0.00 0.00 80 1014.1
20260904083007 55 288 1.0 2.0 0.00 0.00 0.00 79 1014.1
20260904081504 57 269 0.0 1.0 0.00 0.00 0.00 73 1014.1
20260904081005 57 134 0.0 1.0 0.00 0.00 0.00 68 1014.0
20260904080503 57 129 0.0 1.0 0.00 0.00 0.00 65 1014.1
20260904080007 58 150 0.0 0.0 0.00 0.00 0.00 64 1014.1
20260904075505 58 150 0.0 0.0 0.00 0.00 0.00 64 1014.2
20260904075004 58 150 0.0 0.0 0.00 0.00 0.00 63 1014.1
20260904074504 58 149 0.0 0.0 0.00 0.00 0.00 64 1014.0
20260904073503 58 155 0.0 0.0 0.00 0.00 0.00 63 1014.0
20260904073003 58 155 0.0 0.0 0.00 0.00 0.00 63 1014.1
20260904072504 58 155 0.0 1.0 0.00 0.00 0.00 63 1014.1
20260904072002 58 155 0.0 2.0 0.00 0.00 0.00 63 1014.1
20260904071504 58 160 0.0 2.0 0.00 0.00 0.00 62 1014.1
20260904071002 58 263 0.0 1.0 0.00 0.00 0.00 63 1014.2
20260904070502 58 263 0.0 1.0 0.00 0.00 0.00 63 1014.2
20260904070013 58 263 0.0 1.0 0.00 0.00 0.00 63 1014.2
20260904065505 58 136 0.0 1.0 0.00 0.00 0.00 62 1014.2
20260904065006 57 136 0.0 2.0 0.00 0.00 0.00 63 1014.2
20260904064504 57 136 0.0 2.0 0.00 0.00 0.00 64 1014.3
20260904064006 57 205 0.0 0.0 0.00 0.00 0.00 64 1014.3
20260904063505 57 205 0.0 0.0 0.00 0.00 0.00 65 1014.3
20260904063005 57 205 0.0 0.0 0.00 0.00 0.00 66 1014.3
20260904062505 57 194 0.0 1.0 0.00 0.00 0.00 66 1014.4
20260904061502 57 204 0.0 1.0 0.00 0.00 0.00 67 1014.4
20260904060503 57 284 0.0 1.0 0.00 0.00 0.00 70 1014.5
20260904060008 57 283 0.0 1.0 0.00 0.00 0.00 69 1014.5
20260904055506 57 320 0.0 2.0 0.00 0.00 0.00 72 1014.5
20260904055006 56 321 0.0 2.0 0.00 0.00 0.00 71 1014.7
20260904054504 56 137 0.0 0.0 0.00 0.00 0.00 73 1014.7
20260904053506 56 137 0.0 1.0 0.00 0.00 0.00 74 1014.7
20260904053006 56 137 0.0 1.0 0.00 0.00 0.00 75 1014.8
20260904052506 56 137 0.0 1.0 0.00 0.00 0.00 76 1014.9
20260904052005 56 137 0.0 0.0 0.00 0.00 0.00 76 1014.8
20260904051007 56 137 0.0 0.0 0.00 0.00 0.00 76 1015.0
20260904050008 56 137 0.0 0.0 0.00 0.00 0.00 76 1015.1
20260904045506 56 137 0.0 0.0 0.00 0.00 0.00 76 1015.0
20260904045005 56 137 0.0 0.0 0.00 0.00 0.00 76 1015.0
20260904044505 56 137 0.0 0.0 0.00 0.00 0.00 75 1015.0
20260904043005 56 137 0.0 0.0 0.00 0.00 0.00 76 1015.0
20260904042006 56 137 0.0 0.0 0.00 0.00 0.00 76 1015.0
20260904041505 55 137 0.0 0.0 0.00 0.00 0.00 76 1014.9
20260904041007 56 137 0.0 0.0 0.00 0.00 0.00 76 1014.9
20260904040503 56 137 0.0 0.0 0.00 0.00 0.00 76 1014.8
20260904040003 56 137 0.0 0.0 0.00 0.00 0.00 76 1014.8
20260904035503 55 137 0.0 0.0 0.00 0.00 0.00 76 1014.7
20260904034505 55 137 0.0 0.0 0.00 0.00 0.00 76 1014.7
20260904034006 56 137 0.0 0.0 0.00 0.00 0.00 77 1014.6
20260904033505 56 137 0.0 0.0 0.00 0.00 0.00 76 1014.7
20260904033005 56 137 0.0 0.0 0.00 0.00 0.00 76 1014.7
20260904032504 56 137 0.0 0.0 0.00 0.00 0.00 75 1014.6
20260904032004 57 137 0.0 0.0 0.00 0.00 0.00 75 1014.6
20260904031504 57 137 0.0 0.0 0.00 0.00 0.00 74 1014.7
20260904031004 57 137 0.0 0.0 0.00 0.00 0.00 74 1014.6
20260904030503 58 137 0.0 0.0 0.00 0.00 0.00 73 1014.6
20260904030007 58 137 0.0 0.0 0.00 0.00 0.00 72 1014.6
20260904025505 58 137 0.0 0.0 0.00 0.00 0.00 72 1014.7
20260904025005 58 137 0.0 1.0 0.00 0.00 0.00 71 1014.8
20260904024504 58 137 0.0 1.0 0.00 0.00 0.00 71 1014.8
20260904024006 58 137 0.0 1.0 0.00 0.00 0.00 70 1014.8
20260904023504 58 83 0.0 2.0 0.00 0.00 0.00 70 1014.8
20260904023005 59 124 0.0 2.0 0.00 0.00 0.00 69 1014.8
20260904022506 59 72 0.0 2.0 0.00 0.00 0.00 66 1014.9
20260904022005 59 72 0.0 1.0 0.00 0.00 0.00 64 1014.8
20260904021505 60 122 0.0 2.0 0.00 0.00 0.00 62 1014.7
20260904020003 61 60 0.0 3.0 0.00 0.00 0.00 57 1014.8
20260904015504 61 124 0.0 2.0 0.00 0.00 0.00 54 1014.9
20260904015006 62 156 0.0 1.0 0.00 0.00 0.00 52 1014.8
20260904014502 62 123 0.0 2.0 0.00 0.00 0.00 48 1014.9
20260904014004 63 122 1.0 3.0 0.00 0.00 0.00 48 1015.0
20260904013504 63 269 1.0 5.0 0.00 0.00 0.00 45 1015.0
20260904013004 63 200 0.0 3.0 0.00 0.00 0.00 45 1015.0
20260904012503 64 115 0.0 3.0 0.00 0.00 0.00 45 1015.1
20260904011502 64 228 1.0 6.0 0.00 0.00 0.00 44 1015.0
20260904011003 64 248 1.0 6.0 0.00 0.00 0.00 44 1015.1
20260904010506 64 109 1.0 5.0 0.00 0.00 0.00 44 1015.1
20260904010007 64 222 2.0 7.0 0.00 0.00 0.00 43 1015.1
20260904005504 65 120 1.0 8.0 0.00 0.00 0.00 45 1015.1
20260904004504 65 155 1.0 6.0 0.00 0.00 0.00 46 1015.2
20260904003006 66 160 2.0 10.0 0.00 0.00 0.00 46 1015.2
20260904002503 66 243 2.0 8.0 0.00 0.00 0.00 47 1015.2
20260904002007 66 160 2.0 5.0 0.00 0.00 0.00 46 1015.2
20260904001504 66 214 1.0 5.0 0.00 0.00 0.00 46 1015.2
20260904001005 66 309 1.0 3.0 0.00 0.00 0.00 45 1015.4
20260904000504 66 254 2.0 5.0 0.00 0.00 0.00 45 1015.4
20260904000008 66 92 2.0 7.0 0.00 0.00 0.00 46 1015.3
20260903235501 66 250 1.0 7.0 0.00 0.00 0.00 47 1015.3
20260903235005 67 206 1.0 5.0 0.00 0.00 0.00 46 1015.4
20260903234504 67 146 1.0 5.0 0.00 0.00 0.00 46 1015.6
20260903234005 67 218 0.0 2.0 0.00 0.00 0.00 46 1015.6
20260903233505 67 232 2.0 4.0 0.00 0.00 0.00 46 1015.7
20260903233004 67 84 2.0 7.0 0.00 0.00 0.00 46 1015.7
20260903232505 68 158 2.0 8.0 0.00 0.00 0.00 46 1015.8
20260903231504 67 167 2.0 11.0 0.00 0.00 0.00 45 1015.9
20260903231006 68 89 2.0 5.0 0.00 0.00 0.00 46 1015.8
20260903230504 68 245 2.0 5.0 0.00 0.00 0.00 45 1015.8
20260903230003 68 108 3.0 7.0 0.00 0.00 0.00 46 1015.8
20260903225505 68 134 3.0 9.0 0.00 0.00 0.00 45 1016.0
20260903225005 68 161 1.0 9.0 0.00 0.00 0.00 45 1016.0
20260903224504 68 304 2.0 6.0 0.00 0.00 0.00 46 1016.1
20260903224005 68 143 2.0 6.0 0.00 0.00 0.00 45 1016.0
20260903223504 68 103 1.0 6.0 0.00 0.00 0.00 46 1016.1
20260903222506 68 203 2.0 11.0 0.00 0.00 0.00 46 1016.2
20260903222006 68 128 2.0 11.0 0.00 0.00 0.00 46 1016.2
20260903221504 69 236 2.0 5.0 0.00 0.00 0.00 46 1016.2
20260903221004 68 243 2.0 7.0 0.00 0.00 0.00 46 1016.3
20260903220503 69 112 2.0 7.0 0.00 0.00 0.00 44 1016.3
20260903220011 69 248 2.0 7.0 0.00 0.00 0.00 46 1016.3
20260903215504 69 201 2.0 9.0 0.00 0.00 0.00 47 1016.4
20260903214507 68 233 3.0 7.0 0.00 0.00 0.00 45 1016.3
20260903213504 68 212 3.0 8.0 0.00 0.00 0.00 46 1016.3
20260903213008 68 137 3.0 6.0 0.00 0.00 0.00 47 1016.3
20260903212502 68 165 2.0 6.0 0.00 0.00 0.00 47 1016.3
20260903212005 68 226 2.0 7.0 0.00 0.00 0.00 46 1016.3
20260903211504 69 285 3.0 9.0 0.00 0.00 0.00 45 1016.3
20260903211005 68 226 3.0 9.0 0.00 0.00 0.00 47 1016.2
20260903210502 68 262 3.0 8.0 0.00 0.00 0.00 46 1016.3
20260903210010 68 227 3.0 10.0 0.00 0.00 0.00 45 1016.2
20260903205009 69 246 3.0 9.0 0.00 0.00 0.00 42 1016.3
20260903204459 69 279 3.0 11.0 0.00 0.00 0.00 41 1016.3
20260903204004 68 138 3.0 11.0 0.00 0.00 0.00 43 1016.3
20260903203007 70 114 2.0 8.0 0.00 0.00 0.00 41 1016.2
20260903202503 70 205 2.0 10.0 0.00 0.00 0.00 40 1016.4
20260903202009 70 251 2.0 10.0 0.00 0.00 0.00 40 1016.4
20260903201503 70 217 2.0 9.0 0.00 0.00 0.00 41 1016.5
20260903201004 70 219 2.0 9.0 0.00 0.00 0.00 40 1016.6
20260903200008 69 248 2.0 7.0 0.00 0.00 0.00 40 1016.5
20260903195500 69 243 2.0 7.0 0.00 0.00 0.00 41 1016.6
20260903195005 69 242 2.0 8.0 0.00 0.00 0.00 43 1016.5
20260903194504 69 139 3.0 8.0 0.00 0.00 0.00 43 1016.5
20260903194011 70 127 3.0 9.0 0.00 0.00 0.00 42 1016.5